TimeMST,TemperatureF,Dew PointF,Humidity,Sea Level PressureIn,VisibilityMPH,Wind Direction,Wind SpeedMPH,Gust SpeedMPH,PrecipitationIn,Events,Conditions,WindDirDegrees,DateUTC
12:15 AM,6.8,3.2,85,30.38,6.0,Calm,Calm,-,N/A,,Overcast,0,2013-01-15 07:15:00
12:35 AM,6.8,3.2,85,30.39,3.0,Calm,Calm,-,N/A,,Overcast,0,2013-01-15 07:35:00
1:15 AM,8.6,5.0,85,30.40,4.0,Calm,Calm,-,N/A,,Overcast,0,2013-01-15 08:15:00
1:35 AM,8.6,5.0,85,30.40,4.0,Calm,Calm,-,N/A,,Overcast,0,2013-01-15 08:35:00
1:55 AM,8.6,3.2,79,30.41,5.0,Calm,Calm,-,N/A,,Overcast,0,2013-01-15 08:55:00
2:15 AM,8.6,5.0,85,30.41,4.0,Calm,Calm,-,N/A,,Overcast,0,2013-01-15 09:15:00
2:35 AM,8.6,5.0,85,30.42,5.0,Calm,Calm,-,N/A,,Overcast,0,2013-01-15 09:35:00
2:55 AM,8.6,3.2,79,30.43,5.0,Calm,Calm,-,N/A,,Overcast,0,2013-01-15 09:55:00
3:15 AM,8.6,5.0,85,30.43,4.0,Calm,Calm,-,N/A,,Overcast,0,2013-01-15 10:15:00
3:55 AM,8.6,3.2,79,30.44,8.0,Calm,Calm,-,N/A,,Overcast,0,2013-01-15 10:55:00
4:15 AM,8.6,5.0,85,30.43,5.0,Calm,Calm,-,N/A,,Overcast,0,2013-01-15 11:15:00
4:35 AM,8.6,3.2,79,30.44,8.0,Calm,Calm,-,N/A,,Overcast,0,2013-01-15 11:35:00
4:55 AM,8.6,5.0,85,30.44,10.0,Calm,Calm,-,N/A,,Overcast,0,2013-01-15 11:55:00
5:15 AM,8.6,3.2,79,30.43,10.0,Calm,Calm,-,N/A,,Overcast,0,2013-01-15 12:15:00
5:35 AM,8.6,5.0,85,30.43,9.0,Calm,Calm,-,N/A,,Overcast,0,2013-01-15 12:35:00
5:55 AM,8.6,6.8,92,30.44,10.0,Calm,Calm,-,N/A,,Overcast,0,2013-01-15 12:55:00
6:15 AM,8.6,8.6,100,30.45,10.0,Calm,Calm,-,N/A,,Overcast,0,2013-01-15 13:15:00
6:35 AM,8.6,6.8,92,30.46,10.0,Calm,Calm,-,N/A,,Overcast,0,2013-01-15 13:35:00
6:55 AM,8.6,5.0,85,30.46,10.0,Calm,Calm,-,N/A,,Overcast,0,2013-01-15 13:55:00
7:15 AM,8.6,6.8,92,30.45,10.0,Calm,Calm,-,N/A,,Overcast,0,2013-01-15 14:15:00
7:35 AM,8.6,6.8,92,30.47,10.0,Calm,Calm,-,N/A,,Overcast,0,2013-01-15 14:35:00
7:55 AM,8.6,6.8,92,30.47,10.0,Calm,Calm,-,N/A,,Overcast,0,2013-01-15 14:55:00
8:15 AM,8.6,6.8,92,30.47,10.0,Calm,Calm,-,N/A,,Overcast,0,2013-01-15 15:15:00
8:35 AM,8.6,6.8,92,30.48,10.0,Calm,Calm,-,N/A,,Overcast,0,2013-01-15 15:35:00
8:55 AM,8.6,6.8,92,30.49,10.0,Calm,Calm,-,N/A,,Overcast,0,2013-01-15 15:55:00
9:15 AM,10.4,5.0,79,30.50,10.0,Calm,Calm,-,N/A,,Overcast,0,2013-01-15 16:15:00
9:35 AM,10.4,3.2,73,30.50,10.0,Calm,Calm,-,N/A,,Overcast,0,2013-01-15 16:35:00
9:55 AM,10.4,3.2,73,30.51,10.0,Calm,Calm,-,N/A,,Overcast,0,2013-01-15 16:55:00
10:15 AM,10.4,3.2,73,30.52,10.0,Calm,Calm,-,N/A,,Overcast,0,2013-01-15 17:15:00
10:35 AM,10.4,5.0,79,30.52,10.0,Calm,Calm,-,N/A,,Overcast,0,2013-01-15 17:35:00
10:55 AM,10.4,5.0,79,30.52,10.0,Calm,Calm,-,N/A,,Overcast,0,2013-01-15 17:55:00
11:15 AM,10.4,5.0,79,30.52,10.0,Calm,Calm,-,N/A,,Overcast,0,2013-01-15 18:15:00
11:35 AM,10.4,6.8,85,30.53,10.0,Calm,Calm,-,N/A,,Overcast,0,2013-01-15 18:35:00
11:55 AM,12.2,3.2,67,30.53,10.0,Calm,Calm,-,N/A,,Overcast,0,2013-01-15 18:55:00
12:35 PM,12.2,6.8,79,30.52,10.0,Calm,Calm,-,N/A,,Overcast,0,2013-01-15 19:35:00
12:55 PM,12.2,6.8,79,30.51,10.0,Calm,Calm,-,N/A,,Overcast,0,2013-01-15 19:55:00
1:15 PM,12.2,6.8,79,30.51,10.0,Calm,Calm,-,N/A,,Overcast,0,2013-01-15 20:15:00
1:35 PM,12.2,8.6,85,30.52,10.0,Calm,Calm,-,N/A,,Overcast,0,2013-01-15 20:35:00
2:15 PM,14.0,6.8,73,30.51,10.0,Calm,Calm,-,N/A,,Overcast,0,2013-01-15 21:15:00
2:35 PM,12.2,3.2,67,30.52,10.0,Calm,Calm,-,N/A,,Overcast,0,2013-01-15 21:35:00
2:55 PM,14.0,6.8,73,30.52,10.0,Calm,Calm,-,N/A,,Overcast,0,2013-01-15 21:55:00
3:15 PM,12.2,5.0,73,30.52,10.0,Calm,Calm,-,N/A,,Overcast,0,2013-01-15 22:15:00
3:35 PM,12.2,6.8,79,30.52,10.0,Calm,Calm,-,N/A,,Mostly Cloudy,0,2013-01-15 22:35:00
3:55 PM,14.0,6.8,73,30.52,10.0,Calm,Calm,-,N/A,,Mostly Cloudy,0,2013-01-15 22:55:00
4:35 PM,8.6,3.2,79,30.53,10.0,ESE,3.5,-,N/A,,Partly Cloudy,120,2013-01-15 23:35:00
4:55 PM,8.6,5.0,85,30.53,10.0,ESE,3.5,-,N/A,,Clear,120,2013-01-15 23:55:00
5:15 PM,6.8,3.2,85,30.54,10.0,SE,3.5,-,N/A,,Clear,130,2013-01-16 00:15:00
5:35 PM,5.0,1.4,85,30.54,10.0,SE,3.5,-,N/A,,Clear,130,2013-01-16 00:35:00
5:55 PM,5.0,-0.4,78,30.54,10.0,SE,5.8,-,N/A,,Clear,130,2013-01-16 00:55:00
6:15 PM,5.0,-0.4,78,30.54,10.0,SE,3.5,-,N/A,,Clear,130,2013-01-16 01:15:00
6:35 PM,5.0,-0.4,78,30.55,10.0,SE,3.5,-,N/A,,Clear,140,2013-01-16 01:35:00
6:55 PM,3.2,-0.4,85,30.55,10.0,SE,3.5,-,N/A,,Clear,140,2013-01-16 01:55:00
7:15 PM,3.2,-0.4,85,30.55,10.0,Calm,Calm,-,N/A,,Clear,0,2013-01-16 02:15:00
7:35 PM,1.4,-4.0,78,30.56,10.0,Calm,Calm,-,N/A,,Clear,0,2013-01-16 02:35:00
7:55 PM,1.4,-0.4,92,30.56,10.0,SSE,4.6,-,N/A,,Clear,160,2013-01-16 02:55:00
8:15 PM,1.4,-0.4,92,30.56,10.0,Calm,Calm,-,N/A,,Clear,0,2013-01-16 03:15:00
8:35 PM,-0.4,-2.2,92,30.56,10.0,Calm,Calm,-,N/A,,Clear,0,2013-01-16 03:35:00
8:55 PM,-0.4,-4.0,85,30.57,10.0,Calm,Calm,-,N/A,,Clear,0,2013-01-16 03:55:00
9:15 PM,1.4,-2.2,85,30.58,10.0,Calm,Calm,-,N/A,,Clear,0,2013-01-16 04:15:00
9:35 PM,-2.2,-4.0,92,30.58,10.0,Calm,Calm,-,N/A,,Clear,0,2013-01-16 04:35:00
9:55 PM,-0.4,-2.2,92,30.58,10.0,Calm,Calm,-,N/A,,Clear,0,2013-01-16 04:55:00
10:15 PM,-2.2,-7.6,78,30.58,10.0,Calm,Calm,-,N/A,,Clear,0,2013-01-16 05:15:00
10:35 PM,-2.2,-4.0,92,30.59,10.0,Calm,Calm,-,N/A,,Clear,0,2013-01-16 05:35:00
11:15 PM,-2.2,-4.0,92,30.60,10.0,Calm,Calm,-,N/A,,Clear,0,2013-01-16 06:15:00
11:35 PM,-2.2,-5.8,85,30.60,10.0,Calm,Calm,-,N/A,,Clear,0,2013-01-16 06:35:00
11:55 PM,-4.0,-9.4,78,30.60,10.0,Calm,Calm,-,N/A,,Clear,0,2013-01-16 06:55:00